Wind_Speed
16 16 16 15 15 15 16 16 16 16 16 16 15 14 14 14 13 13 13 12 12 12 12 11 11 9 6 7 7 7 7 7 10 11 15 14 12 15 11 12 17 17 20 17 17 16 15 14 14 14 12 9 7 7 7 7 5 2 3 4 3 2 4 5 6 4 7 8 8 8 7 7 10 6 5 5 7 11 8 3 6 8 10 15 22 28 28 28
16 16 16 15 15 15 15 15 16 16 16 16 15 15 15 14 14 13 13 12 12 12 11 10 10 10 8 6 7 8 8 10 14 16 22 18 11 15 16 14 16 22 23 19 19 18 15 13 14 13 10 7 6 6 6 6 6 4 2 3 3 4 5 6 7 5 7 10 10 9 9 7 9 8 6 4 7 11 11 7 8 10 14 20 25 28 27 27
16 16 16 16 16 16 15 15 15 16 16 15 15 15 15 15 15 14 13 13 12 12 12 10 9 9 9 7 7 8 8 12 15 16 19 20 19 16 14 16 19 25 26 19 18 18 15 13 14 13 10 7 6 6 5 5 5 4 3 2 2 1 3 6 8 6 6 11 12 9 8 6 5 5 3 6 10 10 9 10 12 14 18 22 24 26 27 26
17 16 16 16 16 16 15 15 15 15 15 15 15 15 16 16 15 15 14 14 13 12 11 10 8 8 9 8 6 5 8 13 8 4 3 9 17 18 16 19 23 27 26 19 16 18 15 14 13 13 11 8 7 7 7 6 4 4 4 2 3 2 2 4 7 10 8 9 11 10 9 6 4 4 2 7 10 8 7 9 13 17 20 22 22 24 25 25
17 17 17 17 17 17 16 16 15 15 14 14 16 16 16 16 15 15 14 14 13 12 11 9 8 6 8 8 5 4 8 7 3 8 5 4 8 16 20 20 25 28 25 18 16 18 16 13 12 12 10 8 8 8 8 8 6 5 3 3 9 4 4 3 5 11 8 8 10 10 8 6 5 4 3 6 6 5 5 8 12 16 20 21 22 23 23 22
17 17 17 18 17 17 17 16 16 16 15 14 15 16 16 16 16 15 14 13 13 12 11 8 7 6 6 7 5 6 8 3 4 6 2 2 4 14 21 22 26 26 23 19 17 17 16 13 12 11 10 9 10 8 8 8 8 6 0 5 11 2 4 3 3 7 7 10 9 9 7 7 9 7 5 4 4 2 3 8 14 16 20 21 22 21 21 21
17 17 17 18 17 18 17 17 16 16 16 15 15 16 17 17 16 15 13 13 12 12 10 8 6 5 5 6 6 7 10 8 1 4 3 3 6 15 21 22 26 24 22 20 17 16 14 14 13 11 10 10 9 10 8 8 10 7 3 9 8 2 1 4 2 3 5 12 9 8 8 8 10 9 6 3 2 4 7 9 16 16 20 21 20 20 20 20
18 18 17 17 18 18 18 18 17 17 17 17 16 17 18 17 17 16 14 13 12 11 10 7 5 4 3 5 7 8 9 5 4 3 6 3 11 18 22 22 24 23 22 21 18 16 13 14 14 11 10 10 8 9 9 8 10 9 8 9 5 1 4 4 0 1 4 11 10 9 9 7 7 7 8 5 3 7 9 12 17 18 20 19 19 20 19 18
19 18 17 17 18 18 18 18 17 17 17 17 17 18 19 18 16 15 13 12 12 12 9 6 5 3 3 5 9 8 2 4 7 3 3 7 15 21 22 21 24 23 21 20 18 17 13 12 14 12 9 9 7 8 9 7 7 8 9 7 5 5 3 3 2 2 4 8 10 9 8 7 6 5 6 5 5 9 11 14 17 19 19 18 18 19 19 18
19 18 18 18 18 18 19 18 17 17 17 17 17 19 19 18 15 14 13 11 11 12 8 6 4 3 5 7 10 5 4 6 6 6 6 12 17 20 21 22 25 22 19 19 18 18 14 11 12 11 9 9 7 7 9 8 5 6 9 9 7 8 4 2 2 2 4 7 11 10 9 8 6 4 4 4 7 10 13 16 17 18 18 18 17 17 17 17
18 18 18 18 19 19 19 19 17 16 16 17 17 19 19 17 15 14 12 10 10 9 6 6 5 6 8 9 10 3 5 3 5 9 10 14 16 19 20 21 23 21 18 18 18 18 15 12 10 8 6 7 7 8 10 10 7 5 8 9 8 9 7 4 3 3 6 6 10 10 9 10 8 5 5 6 8 11 15 17 18 18 17 17 18 17 14 15
18 18 19 19 20 19 19 19 17 16 16 16 17 18 17 16 15 14 11 8 8 6 5 6 6 7 8 10 10 3 5 2 6 8 10 13 15 18 17 19 21 19 17 16 16 17 16 13 10 10 5 4 7 7 7 10 9 7 8 9 10 10 8 5 3 4 5 6 12 12 8 9 9 7 9 10 8 10 15 17 18 17 16 16 16 15 13 14
18 19 19 19 20 20 20 18 16 15 15 16 16 15 15 15 14 10 7 4 5 5 5 5 6 7 9 8 4 1 3 3 7 8 10 11 13 15 14 17 19 17 16 14 14 16 16 11 10 13 8 5 7 2 3 8 9 8 10 10 8 8 7 5 4 4 4 8 12 9 4 6 9 8 10 11 9 10 14 16 15 14 14 15 15 14 13 15
18 19 19 19 20 20 19 17 15 15 14 15 14 13 12 12 9 4 1 2 5 6 6 5 6 8 9 5 2 4 3 4 8 10 11 11 13 13 13 16 16 14 13 13 13 13 12 10 10 12 9 9 8 6 3 9 8 9 10 9 7 7 5 5 4 5 3 7 10 6 2 3 7 9 9 11 13 15 15 15 15 13 13 14 14 14 14 15
20 20 20 20 20 19 18 16 15 14 13 13 11 10 8 6 4 3 4 5 6 7 6 6 7 7 9 6 3 6 7 7 10 11 10 11 12 12 13 15 14 12 11 11 11 9 8 9 9 9 8 10 9 7 7 9 7 9 9 8 8 7 5 5 4 4 4 6 9 6 1 4 7 9 8 10 15 16 15 13 14 14 14 14 14 14 14 14
21 21 21 21 19 18 17 16 15 13 12 11 8 5 3 6 6 5 6 6 7 8 8 7 9 9 8 2 6 7 9 10 11 11 10 11 11 12 14 14 12 11 10 9 7 7 9 9 8 9 8 9 9 7 7 8 8 9 9 8 8 8 6 5 5 7 9 8 8 4 1 4 5 6 6 12 13 12 12 10 10 11 13 14 13 13 13 14
21 21 22 20 18 17 16 16 14 12 11 9 4 0 4 8 8 7 7 7 7 8 8 7 5 9 7 2 4 9 11 11 12 12 11 11 10 12 13 12 11 12 11 8 5 8 10 9 7 8 9 8 9 8 8 9 9 8 9 9 8 9 8 4 4 6 10 9 7 5 2 4 4 5 9 12 7 9 9 8 8 8 10 12 12 13 13 14
21 21 21 20 17 16 15 15 13 11 10 5 2 4 6 8 9 7 6 7 6 7 9 9 6 6 6 6 8 11 12 12 13 13 11 9 10 13 13 10 11 12 11 8 8 9 9 8 7 7 8 8 9 10 10 10 10 10 10 9 8 9 11 7 4 5 9 9 6 5 3 5 5 6 8 6 2 7 10 9 9 12 12 12 12 13 13 14
23 22 21 19 17 15 14 13 11 11 8 1 4 3 4 4 4 4 8 8 8 7 4 5 8 4 1 7 7 8 12 12 13 13 12 10 11 14 12 10 11 12 11 8 10 11 8 8 8 8 9 10 12 13 13 13 12 11 11 11 8 8 10 7 4 5 8 7 6 8 4 4 7 7 7 7 5 7 9 8 10 12 12 12 12 12 14 14
24 23 20 18 16 13 12 11 10 10 5 5 5 3 3 3 4 5 9 11 10 9 6 2 9 5 1 7 8 8 10 11 12 12 13 12 13 14 12 10 11 11 10 9 10 11 9 9 10 10 11 13 16 16 17 18 11 10 12 13 11 9 8 7 6 6 7 6 5 12 8 5 7 8 9 10 9 8 9 9 10 11 11 12 12 13 14 14
25 21 19 17 15 13 10 9 8 7 4 7 6 8 4 4 3 1 2 10 13 12 11 6 9 8 3 2 6 7 9 11 11 12 14 13 13 12 10 11 11 9 11 11 10 9 10 10 11 13 14 14 15 15 16 17 11 11 13 11 11 10 8 6 7 7 7 5 2 11 14 11 11 11 10 11 9 11 14 13 13 15 13 11 11 13 14 13
23 19 18 17 15 13 10 8 6 3 4 7 9 11 3 8 6 6 6 7 9 10 9 8 9 8 4 3 3 6 9 11 12 13 15 15 14 11 10 12 12 9 12 12 9 9 10 11 13 14 15 13 12 14 16 13 9 12 10 6 8 9 6 4 7 9 8 5 3 7 11 12 13 12 11 13 10 11 13 12 11 14 14 10 9 12 13 13
21 18 16 15 14 13 9 7 3 2 5 8 10 8 4 6 6 7 6 8 5 7 8 9 10 8 8 9 7 9 11 11 12 13 16 15 13 11 10 12 12 11 13 13 10 9 8 10 14 14 13 13 12 14 16 10 8 12 8 6 8 10 8 5 7 11 10 6 4 5 7 9 13 13 12 12 11 10 10 8 7 9 12 11 11 12 13 15
20 17 15 13 13 11 6 1 2 4 7 9 10 3 4 4 6 9 6 8 6 6 6 7 9 10 8 5 9 14 12 9 11 13 16 16 12 9 10 11 13 12 12 15 14 11 10 10 14 15 13 14 13 13 15 9 8 12 11 11 8 12 14 7 5 9 9 7 6 4 5 6 11 13 12 10 10 11 10 11 10 9 9 9 12 13 12 13
19 16 13 11 10 8 2 4 4 4 6 8 7 1 2 4 6 9 7 7 6 6 5 6 7 7 4 4 10 13 11 9 10 13 16 16 13 8 8 9 10 11 12 15 14 11 11 9 12 16 13 12 13 12 13 11 9 11 13 14 10 12 18 10 6 7 7 8 10 8 7 5 8 10 12 10 10 11 11 12 12 10 11 12 12 13 12 10
17 15 12 8 7 6 1 2 2 2 5 6 2 1 2 4 6 7 6 6 5 6 7 9 8 6 6 8 11 9 10 8 6 11 17 17 15 9 8 7 7 11 12 13 10 8 10 8 8 11 11 13 14 10 13 13 10 9 11 15 10 9 12 13 10 9 7 5 9 10 7 3 6 7 11 11 10 12 12 12 12 10 11 13 11 11 12 10
15 12 10 6 5 4 3 2 2 3 4 2 2 2 4 4 6 6 6 6 4 4 6 8 6 7 8 10 12 8 7 8 6 10 15 15 14 9 10 9 8 10 9 10 8 7 11 11 10 10 10 12 13 10 12 13 11 9 10 15 11 5 7 10 9 8 7 4 8 9 8 5 6 5 10 9 7 10 12 13 13 11 10 12 12 12 13 13
12 10 8 4 2 3 3 4 5 4 1 4 1 5 4 4 7 6 6 4 2 1 4 7 3 5 6 9 14 9 3 11 9 10 12 13 12 8 10 12 10 11 11 10 8 8 12 12 11 13 12 10 11 11 11 13 13 8 3 9 12 8 8 9 9 8 8 7 6 9 9 6 4 7 9 8 6 6 8 11 13 15 14 14 13 13 14 13
10 8 7 4 1 1 1 4 8 5 5 3 4 4 4 5 6 5 5 2 2 2 3 5 5 7 7 9 12 8 4 7 6 8 12 10 11 9 8 8 9 13 13 11 9 9 11 9 10 13 12 9 11 12 11 13 14 5 6 3 8 8 11 10 9 9 9 9 8 9 11 8 3 6 8 7 7 5 8 11 10 12 14 14 14 15 15 14
7 7 8 6 3 4 4 6 7 4 3 3 4 5 7 6 5 5 4 1 2 4 3 3 8 11 11 12 11 9 9 5 3 9 11 9 12 11 7 6 9 12 11 11 13 9 10 10 10 11 11 11 11 12 11 11 14 10 6 5 8 9 10 9 8 9 9 9 11 12 13 11 5 3 3 4 6 4 5 9 8 10 11 11 13 14 14 14
5 5 7 6 5 6 8 4 2 2 3 4 5 7 7 5 5 5 2 1 1 5 6 5 9 12 13 14 10 9 9 6 7 11 9 8 11 10 8 6 7 9 10 11 13 11 10 11 9 9 10 9 9 12 12 10 12 13 6 6 8 8 8 7 7 8 8 9 12 14 14 13 9 3 3 4 5 3 3 5 6 9 12 13 12 12 13 13
5 4 5 7 8 7 9 5 4 4 4 5 6 7 6 4 4 3 1 2 2 3 5 5 7 11 15 14 11 10 9 7 9 11 10 10 9 9 10 8 6 8 9 9 12 12 10 9 9 10 8 8 10 11 10 10 10 11 8 8 9 8 7 8 9 8 9 9 10 14 16 12 4 5 7 6 6 6 5 5 5 4 6 9 11 12 10 10
6 7 8 9 10 7 8 7 6 6 4 5 7 6 6 4 1 1 1 2 2 1 2 4 8 11 14 13 10 11 10 7 9 12 12 12 10 10 10 7 8 10 7 8 13 13 9 9 13 11 8 10 14 10 10 11 10 9 9 9 8 8 8 9 9 8 9 10 10 14 16 9 6 8 8 8 8 7 7 7 6 5 3 2 7 12 11 10
7 8 9 12 11 7 8 7 5 5 5 7 7 6 6 3 1 1 1 2 3 3 3 5 10 10 8 7 7 8 7 6 8 9 8 9 8 8 9 8 8 7 5 7 11 12 10 9 13 10 8 12 14 10 9 9 10 11 10 10 10 8 7 7 8 9 9 9 12 14 13 7 7 7 7 8 9 8 8 8 7 7 5 3 1 7 11 11
7 6 8 12 10 5 6 6 4 5 6 7 6 5 4 1 2 1 2 3 0 4 6 6 9 10 7 7 8 7 3 4 8 8 7 8 6 5 6 6 4 3 6 6 6 11 13 9 13 7 5 14 16 12 8 8 9 12 10 10 10 8 7 6 7 10 9 9 10 10 4 3 7 9 9 9 9 9 9 9 9 9 8 7 6 5 7 9
8 6 7 9 5 4 4 4 4 6 7 6 5 3 1 4 4 4 3 3 5 1 6 8 8 8 8 7 8 8 4 4 9 9 4 3 2 2 2 1 0 5 6 5 4 8 11 7 14 9 6 13 14 10 9 10 6 7 10 11 9 10 9 7 8 10 11 10 9 9 6 7 8 9 9 9 10 10 9 11 11 10 11 10 8 7 7 7
9 7 6 5 4 5 5 3 5 7 7 7 4 2 3 4 5 5 4 4 5 3 3 5 4 3 5 7 7 10 9 6 8 7 4 4 3 4 4 2 3 6 6 7 8 4 5 5 11 12 11 10 7 7 11 13 9 6 8 9 10 11 8 6 6 9 11 10 8 12 13 10 9 6 7 7 8 9 10 11 11 11 12 11 10 9 7 6
10 8 6 3 5 6 5 4 6 7 6 6 0 3 3 4 5 5 4 5 3 3 5 2 2 2 5 6 6 7 9 7 7 7 5 6 3 3 3 2 3 7 8 8 7 3 3 4 9 11 10 10 8 9 10 12 13 9 5 6 9 10 6 5 6 7 11 11 8 14 16 11 8 7 7 7 7 8 9 10 11 12 12 11 11 10 8 7
11 9 4 1 5 7 5 6 9 7 6 5 2 3 2 5 6 6 5 4 3 3 4 0 2 3 2 2 4 6 7 6 6 6 4 2 1 3 3 3 3 7 9 9 6 5 6 3 6 9 10 9 10 10 9 10 14 11 7 8 9 7 6 7 6 6 9 10 9 13 14 7 4 5 8 8 6 7 8 9 10 12 12 11 11 10 10 9
9 6 2 5 6 6 7 9 9 7 4 1 3 3 3 4 5 6 7 5 3 4 4 1 2 2 1 1 2 2 4 5 5 4 2 1 1 4 5 5 6 8 8 8 8 6 7 5 3 7 10 9 9 8 5 5 9 10 8 8 9 7 7 9 9 8 8 8 9 10 9 7 6 3 6 8 6 7 9 9 9 10 11 11 11 11 11 10
6 3 4 7 6 5 9 9 4 4 1 2 3 4 4 4 4 4 5 5 3 3 5 2 3 5 3 1 2 1 2 4 4 3 3 1 2 3 5 7 8 8 7 7 8 5 5 5 3 7 9 8 6 5 2 4 3 5 8 10 10 9 8 9 10 10 9 8 9 7 5 7 5 2 4 7 6 8 9 9 9 10 10 11 11 11 11 10
6 3 6 9 6 6 9 5 1 3 2 3 3 4 3 2 4 3 3 4 2 2 3 2 4 6 5 2 2 2 1 1 1 1 2 4 5 6 7 9 9 9 7 5 4 1 4 6 4 4 4 4 6 6 3 6 7 4 4 7 9 11 11 10 10 10 9 10 9 3 7 5 2 3 5 6 7 8 9 9 8 8 10 10 10 11 11 10
3 3 6 6 5 8 8 1 3 1 3 4 3 4 4 2 4 4 3 4 3 1 2 3 2 2 6 5 2 1 2 2 2 2 3 5 6 7 8 9 10 8 6 4 0 4 4 6 5 1 2 5 7 3 3 4 5 6 5 3 5 7 8 7 5 5 7 11 11 5 6 5 4 3 4 6 8 9 8 8 8 8 8 10 11 11 11 12
2 3 4 4 4 8 6 0 3 3 4 3 4 5 5 5 6 6 5 6 5 3 3 4 3 1 4 7 6 4 2 1 1 1 2 2 4 6 7 9 10 8 6 6 4 5 4 5 6 4 5 5 4 5 5 4 5 8 6 2 5 6 7 7 5 4 5 9 9 5 4 6 5 5 5 8 8 8 9 8 9 9 8 9 10 10 11 12
2 1 2 4 3 4 3 3 2 3 5 3 4 5 4 4 5 6 6 6 6 5 3 3 3 2 3 5 5 5 5 4 2 2 1 2 3 3 6 8 9 8 7 8 9 7 4 3 3 4 6 6 4 5 5 7 8 6 3 2 4 5 6 6 6 6 7 6 6 2 6 9 6 7 8 10 8 8 8 8 9 9 9 10 10 10 11 12
3 1 1 2 1 2 4 4 3 2 3 2 2 3 2 4 5 4 5 4 5 5 4 3 2 1 3 4 5 5 4 3 3 5 4 3 3 3 5 6 7 8 9 10 9 7 4 2 0 1 2 1 1 2 2 4 10 9 6 4 3 2 4 6 8 6 5 5 2 5 11 13 10 10 11 10 8 8 7 7 8 8 8 10 9 10 11 11
2 2 3 2 1 2 3 2 3 2 1 1 1 1 2 3 5 3 4 3 3 3 3 3 2 0 2 3 4 4 3 4 4 4 4 3 3 4 1 3 5 6 9 9 6 5 5 3 3 1 1 3 4 5 5 2 4 6 5 4 2 0 3 7 6 3 4 5 3 8 13 14 13 12 11 10 9 7 7 7 7 7 8 9 9 10 12 13
2 2 3 3 3 2 3 4 4 4 4 3 1 1 2 3 3 4 5 4 2 2 2 2 2 2 3 1 2 4 4 5 5 4 3 3 3 4 4 2 4 3 6 5 4 4 5 2 1 1 2 1 3 3 3 3 2 2 1 1 2 1 2 3 1 3 4 1 6 10 12 12 13 12 11 11 9 8 8 7 7 7 8 8 10 11 12 13
1 2 3 2 3 3 4 3 3 5 6 3 2 3 4 4 5 5 5 4 5 4 3 3 5 4 4 2 1 3 2 1 4 4 2 2 1 2 2 2 2 1 3 3 3 2 4 1 2 4 2 2 1 1 1 1 0 3 3 1 1 1 1 1 2 4 4 6 11 13 12 11 11 11 10 9 9 9 8 7 7 7 8 8 9 11 12 13
3 3 2 0 2 3 2 1 0 3 4 0 0 3 3 4 6 6 6 5 5 5 4 6 8 6 6 6 5 6 5 5 4 5 2 1 1 1 1 1 2 2 2 3 2 2 2 1 2 5 4 4 2 2 3 2 3 5 4 3 3 3 3 2 1 2 4 7 10 13 13 10 8 10 9 8 9 9 8 8 7 6 7 8 9 11 12 12
5 5 5 2 2 2 2 1 1 2 3 2 1 3 3 4 6 6 6 8 6 6 6 6 7 6 7 8 7 7 7 6 5 5 2 3 2 1 2 2 2 1 1 0 1 2 3 1 1 4 6 4 3 3 4 3 5 8 8 7 6 4 4 3 2 2 3 6 9 10 10 8 7 9 8 7 8 8 7 7 7 6 7 8 9 11 11 12
5 2 4 5 0 1 2 1 1 1 3 4 3 2 2 4 4 2 3 5 5 6 6 4 3 4 5 7 6 6 5 5 4 3 1 2 2 1 1 1 1 3 2 1 1 2 3 2 3 4 6 4 5 3 3 4 7 7 6 6 7 5 2 2 3 1 1 2 5 5 6 9 9 9 9 8 8 7 6 5 5 5 6 8 10 11 11 11
Wind_Direction
343 342 341 341 341 340 338 337 337 337 335 334 333 332 331 330 329 326 321 315 311 307 304 312 316 315 328 338 334 333 331 287 263 239 231 245 232 225 227 209 209 185 164 180 196 190 188 198 203 204 209 205 214 229 212 208 226 263 270 277 296 350 27 47 45 56 115 135 148 155 187 153 129 163 173 191 194 145 114 137 156 129 137 133 131 140 142 143
341 340 340 339 339 339 338 337 336 335 333 333 331 330 330 327 326 324 319 313 307 305 302 304 312 311 309 327 333 334 323 273 259 251 243 243 226 218 220 212 203 177 171 193 198 190 190 194 196 200 211 211 208 215 206 199 201 223 259 286 312 14 38 56 68 85 127 145 154 160 174 150 139 156 135 147 177 144 135 156 146 127 130 128 134 143 144 147
340 339 338 337 337 337 337 336 334 333 333 332 330 329 328 325 323 321 317 312 305 301 298 297 308 308 302 312 330 337 313 278 261 252 247 238 225 219 210 200 194 180 181 197 196 192 197 196 191 197 213 215 205 208 207 189 187 233 243 251 285 341 29 52 75 99 131 139 146 151 141 127 141 140 114 159 165 150 146 152 147 138 134 135 140 145 147 150
338 337 336 335 334 335 335 335 333 331 331 329 329 327 325 324 321 318 314 309 303 297 294 292 301 308 305 307 333 348 290 276 259 206 185 212 218 218 205 193 189 186 191 201 198 198 205 200 195 206 220 222 208 212 223 193 165 240 239 254 266 234 19 26 70 94 123 134 136 139 129 133 138 95 132 176 162 147 145 150 147 142 140 142 144 148 151 153
337 335 333 333 333 333 333 332 331 330 331 328 327 326 324 322 318 316 311 307 302 295 292 288 294 308 305 304 335 325 274 268 112 96 97 159 201 204 198 192 189 188 196 206 202 203 210 205 202 215 228 234 211 205 228 205 188 237 213 215 256 270 40 343 61 89 125 132 127 136 138 151 133 104 186 189 165 147 148 149 149 146 143 146 147 150 153 155
335 334 332 332 331 332 332 330 329 328 329 327 325 325 323 321 318 314 309 305 299 292 289 283 288 305 303 304 315 275 259 280 83 79 57 211 200 192 189 189 187 188 199 207 204 206 213 207 205 216 227 238 223 213 227 210 208 238 186 222 247 293 41 305 46 85 130 125 127 135 136 162 143 139 189 181 138 175 241 158 151 150 146 149 150 151 155 157
332 332 330 331 330 330 331 328 328 326 327 326 324 324 323 323 320 314 306 298 291 287 284 277 279 292 307 300 290 252 245 276 12 72 354 253 206 187 183 186 184 188 201 207 205 205 211 207 208 216 223 235 229 222 224 215 219 225 246 247 250 69 81 262 86 90 120 116 129 136 146 177 153 144 165 154 100 269 258 166 149 151 148 151 153 155 156 157
332 331 330 329 329 329 329 327 327 325 324 322 323 325 324 324 320 313 303 292 283 279 274 270 271 272 297 283 267 242 235 265 92 61 328 223 182 177 175 180 182 189 202 207 205 204 209 207 209 216 223 236 231 221 219 218 227 220 226 242 250 195 214 244 159 128 116 119 140 156 159 159 131 131 147 153 199 233 216 160 149 152 151 153 156 158 155 156
332 331 329 328 328 328 327 327 325 324 323 321 324 325 324 324 318 311 300 287 274 269 268 258 256 252 259 266 264 253 219 68 87 62 343 154 166 171 170 175 181 191 201 206 207 204 207 207 211 221 237 256 247 226 217 216 231 229 235 247 259 268 256 273 287 170 148 136 146 154 138 117 117 125 131 162 207 210 184 151 151 155 153 156 158 159 156 161
333 332 329 328 327 327 326 326 326 325 322 322 326 325 324 324 317 310 300 287 267 261 258 243 235 223 235 250 257 252 81 68 98 109 124 150 160 168 175 177 181 191 199 202 205 205 209 212 214 229 261 278 266 238 221 217 232 233 245 260 265 273 270 250 274 196 166 145 143 141 121 128 172 176 140 193 211 195 169 149 154 158 156 160 160 158 158 163
333 331 329 328 326 326 325 324 325 324 322 324 327 325 324 322 314 306 298 285 261 251 239 229 214 214 239 253 257 270 60 71 123 122 142 156 162 172 180 179 182 193 198 199 205 207 213 220 222 230 252 270 259 241 230 224 233 242 253 266 256 251 246 227 240 189 176 144 126 129 130 143 181 194 153 183 211 189 164 153 158 161 159 161 159 156 161 163
332 330 328 327 326 325 324 323 324 323 322 325 327 325 323 319 313 304 295 278 248 228 206 211 200 214 252 258 251 291 43 123 138 132 152 157 168 177 179 181 187 196 199 200 205 207 215 223 232 231 233 287 254 234 237 230 232 246 256 261 248 236 223 200 196 182 180 136 123 136 145 157 181 174 151 171 209 196 169 158 160 163 160 161 159 155 163 162
329 328 327 326 325 324 323 321 323 322 321 326 327 325 322 318 313 304 293 264 219 197 188 194 193 220 257 263 231 123 50 140 142 142 155 160 169 175 181 185 189 199 204 206 202 206 215 224 242 240 243 274 254 290 316 239 230 241 246 252 255 241 209 167 162 192 164 121 136 166 174 166 174 152 154 176 195 198 178 161 158 164 162 162 160 158 164 163
329 327 325 325 324 323 322 320 321 320 321 326 327 325 325 322 321 319 275 154 159 169 172 178 199 227 252 265 94 128 158 143 153 158 159 163 165 171 181 182 189 201 207 210 205 203 212 225 251 253 247 249 270 343 294 231 224 234 241 237 242 248 205 144 161 189 146 116 146 200 249 145 155 152 171 191 192 190 178 164 159 159 165 166 161 161 165 163
331 330 328 324 322 322 319 317 318 316 321 327 326 326 332 349 16 84 121 131 146 158 158 179 209 238 254 238 122 138 168 162 168 165 160 165 163 167 172 175 189 198 201 209 203 196 207 224 243 250 238 236 263 294 241 224 220 225 238 229 222 239 204 162 195 166 131 153 163 193 254 122 150 160 174 204 202 183 168 166 160 157 167 169 164 164 165 164
331 330 328 325 322 320 317 315 314 314 322 324 319 320 12 58 66 99 116 130 144 149 163 195 207 229 270 253 122 152 180 181 172 162 162 168 165 164 163 171 183 182 189 203 191 185 205 224 234 240 239 226 233 247 232 222 218 213 226 235 219 226 217 179 197 155 138 161 173 194 288 102 141 151 179 217 207 164 153 169 162 161 169 166 167 168 165 166
331 328 327 325 323 319 315 313 313 316 323 320 307 16 96 93 96 102 105 131 148 158 198 245 232 227 264 344 146 183 187 175 164 163 168 170 165 161 160 169 175 171 175 180 178 183 197 216 224 230 237 230 219 223 227 219 215 210 212 233 224 221 230 189 165 156 155 177 180 183 164 109 137 161 190 218 198 134 149 176 169 175 178 168 171 173 167 167
331 327 327 326 323 318 313 313 314 317 321 309 193 136 114 112 113 113 126 149 171 195 226 254 252 241 237 211 202 190 179 164 161 167 170 170 162 161 169 173 167 168 174 174 187 189 187 200 212 222 222 225 222 215 223 217 213 215 207 219 221 217 229 211 185 172 180 198 170 155 163 133 153 172 180 213 185 145 167 183 186 184 178 170 173 177 173 170
331 329 330 328 325 321 318 318 315 316 320 224 156 125 117 128 141 213 218 192 195 219 240 203 207 277 27 174 181 163 159 157 162 168 169 170 160 165 176 175 169 176 183 177 184 191 189 194 205 221 216 213 218 214 223 223 221 233 223 213 210 218 222 194 177 175 182 209 160 145 185 159 165 172 168 186 192 183 182 196 198 180 169 169 177 182 176 173
335 334 333 329 330 328 323 317 309 314 305 168 167 220 210 226 223 210 212 208 221 255 296 198 204 251 48 149 133 116 138 158 175 174 169 171 164 171 175 173 181 189 198 187 177 186 193 203 205 214 217 211 216 220 228 233 250 278 250 216 198 217 225 166 158 168 167 221 165 140 166 193 188 174 170 180 182 190 192 200 198 171 168 175 178 184 179 176
339 337 334 333 333 330 325 309 300 306 259 184 204 247 263 345 324 27 235 226 225 241 260 247 230 252 277 133 126 144 168 177 189 178 169 175 173 175 170 177 190 192 207 197 172 180 196 216 212 210 222 219 217 223 234 244 261 278 258 222 192 209 227 177 167 168 161 222 209 142 159 176 186 179 172 174 175 195 191 189 189 173 172 175 174 187 181 175
340 338 336 334 332 332 327 302 290 285 223 193 222 250 311 22 2 347 325 270 224 214 239 239 237 255 256 239 202 197 200 185 190 180 169 180 185 182 171 184 200 190 201 200 179 186 201 223 220 210 221 225 221 223 232 244 247 250 253 233 207 202 209 179 172 181 176 202 224 185 181 171 174 172 167 168 175 203 190 178 189 175 164 167 179 194 183 173
341 342 338 336 335 334 323 305 291 199 197 207 232 254 347 19 349 323 301 286 251 196 218 221 219 224 205 211 204 201 212 195 188 177 170 186 196 196 184 189 206 198 195 200 196 197 200 218 222 215 217 223 223 219 222 228 231 237 233 226 211 187 200 205 181 190 188 198 214 219 214 173 166 164 160 168 179 201 181 160 198 177 158 172 186 193 184 174
344 344 344 342 338 336 329 338 146 197 207 229 251 292 3 336 325 320 294 278 262 184 194 208 209 213 196 187 181 193 214 202 186 172 170 194 203 198 201 198 210 209 197 203 205 212 218 208 211 216 212 217 222 213 215 216 220 229 227 235 215 189 214 218 166 190 188 203 215 216 228 182 168 164 156 169 184 186 171 168 190 170 155 190 191 186 188 179
345 346 350 350 347 355 16 163 177 209 209 229 249 312 332 307 320 316 300 271 240 162 161 182 202 212 167 142 174 198 221 202 189 172 169 202 208 191 210 207 217 218 192 199 210 218 226 204 201 214 202 208 224 209 208 217 223 225 223 237 241 216 219 192 153 208 208 207 199 204 234 198 175 166 151 167 183 177 176 178 180 167 173 197 190 180 187 187
346 351 355 356 0 1 282 184 138 205 218 217 192 70 292 315 326 309 295 264 211 156 159 172 184 180 163 180 179 199 224 201 180 164 169 206 213 200 222 199 211 230 193 190 215 225 224 201 193 212 190 198 223 213 207 215 228 231 211 220 246 265 232 191 180 218 232 210 174 197 240 194 187 178 150 163 179 173 173 174 173 178 189 189 183 182 183 188
347 356 356 353 8 349 305 356 31 223 226 157 87 317 300 326 322 304 276 248 194 152 155 154 169 177 176 183 177 194 204 153 142 164 173 208 215 213 239 209 194 233 213 188 209 224 214 189 174 202 197 200 217 214 204 207 226 239 207 198 207 254 249 210 207 225 237 205 148 192 237 226 210 163 131 151 183 176 163 168 179 185 199 194 184 187 186 190
349 358 354 344 12 349 331 327 288 258 15 44 344 292 310 316 297 277 260 241 133 139 154 126 132 188 178 177 191 217 157 140 167 175 169 199 211 210 238 229 205 220 223 202 196 204 207 190 175 198 209 208 214 215 200 200 226 241 189 196 197 202 226 225 230 237 238 233 194 197 212 221 203 130 126 145 168 193 171 178 191 181 187 196 191 190 186 191
348 355 355 343 289 247 281 281 283 313 21 353 298 304 302 285 276 255 255 260 132 188 154 125 155 184 180 179 197 217 176 175 199 163 158 189 215 226 255 257 229 220 219 216 216 196 187 190 192 202 213 212 210 216 203 198 221 208 102 205 221 212 227 230 236 237 231 237 236 215 199 202 194 153 169 158 142 197 180 173 198 191 184 188 190 193 187 188
346 355 1 351 298 264 263 238 250 301 348 296 296 297 273 258 254 239 230 255 148 156 147 165 174 177 182 180 186 196 188 191 147 151 167 186 203 224 265 286 250 229 205 214 240 220 173 184 204 210 217 215 205 212 208 198 224 225 146 190 225 220 226 228 238 242 231 224 227 233 215 195 195 180 185 143 135 187 165 148 180 198 200 202 193 189 188 190
327 345 1 348 323 300 286 253 213 299 303 288 286 271 256 236 247 256 203 22 5 147 167 192 169 167 186 186 178 185 187 170 155 171 183 181 188 207 226 230 240 233 198 200 233 227 187 184 201 219 223 229 217 208 205 189 220 242 208 185 214 210 213 218 221 228 233 223 212 225 228 209 207 191 120 103 111 101 67 113 142 163 185 204 200 189 190 190
293 306 335 330 329 307 289 314 347 310 281 273 267 253 245 225 236 273 115 174 224 171 185 197 166 173 192 190 177 176 184 173 173 185 182 179 190 196 206 207 201 215 207 199 214 208 193 193 208 216 211 233 232 205 199 190 201 232 216 199 213 197 193 210 209 209 222 229 212 213 228 227 196 124 127 118 94 79 59 60 58 92 160 185 184 184 189 181
293 284 296 311 320 297 282 306 305 284 271 252 248 243 251 255 240 337 347 179 162 129 213 191 174 194 202 191 176 176 178 172 185 199 190 188 198 186 191 225 229 222 209 204 214 201 190 199 202 198 184 218 237 207 187 194 195 215 211 205 216 199 193 201 201 208 213 224 228 216 217 206 109 101 122 110 91 84 73 68 54 45 63 147 169 178 185 176
302 281 290 301 305 290 284 294 276 261 250 235 239 243 253 261 88 17 323 60 100 147 192 185 174 196 211 181 169 183 181 175 192 205 190 190 210 188 183 221 241 246 231 221 222 202 198 198 187 193 184 195 225 221 199 206 200 207 217 217 223 216 202 199 201 209 202 209 224 218 211 185 135 129 124 107 95 87 75 69 59 50 52 38 126 164 166 164
311 287 282 279 282 292 287 274 245 236 234 235 250 260 265 311 89 8 28 47 8 172 173 198 188 183 183 167 176 197 222 204 192 199 198 194 203 192 193 202 203 278 269 243 222 201 212 196 162 178 183 177 204 226 240 252 208 194 213 223 229 224 210 214 219 214 206 209 214 207 196 85 123 133 123 112 96 85 76 70 61 48 48 43 32 64 102 122
296 257 250 260 282 344 314 273 227 219 234 253 262 262 344 42 27 356 14 344 308 258 170 198 206 188 177 172 182 193 221 229 196 194 200 168 101 47 345 358 344 306 297 287 270 215 215 177 141 153 175 179 202 218 223 245 232 192 208 216 226 229 226 232 223 208 208 216 206 184 143 100 126 135 121 111 94 84 72 61 60 48 44 44 41 48 61 86
290 258 251 278 343 350 319 286 231 222 242 265 280 342 26 47 19 357 359 318 306 296 221 206 196 208 196 183 183 185 188 198 199 194 178 156 106 33 349 345 320 314 326 314 296 244 202 155 147 174 189 180 203 224 216 232 248 226 208 214 219 220 238 268 241 208 205 212 204 186 174 156 157 153 122 110 89 79 68 56 55 49 45 40 40 48 44 56
297 278 261 275 349 337 317 278 248 241 255 264 277 37 14 47 30 11 3 323 282 239 261 245 145 250 223 184 173 181 185 185 191 194 185 183 161 25 335 296 323 328 327 308 293 278 240 172 157 185 192 172 188 215 214 226 244 254 273 265 230 205 213 254 257 226 204 205 203 189 186 182 177 167 136 113 85 75 64 54 50 46 44 38 34 41 43 48
278 265 236 91 353 335 315 273 258 253 259 263 136 103 52 60 48 25 11 326 285 269 282 245 133 261 259 167 162 180 198 193 189 194 185 195 170 47 8 331 329 328 322 306 293 292 276 231 162 184 185 169 185 203 202 206 224 244 276 265 232 207 208 217 236 241 208 206 210 193 186 168 130 137 127 108 87 75 63 54 50 43 42 40 34 30 31 38
270 258 107 38 348 324 296 268 257 257 259 312 46 73 64 55 54 39 15 340 308 314 324 49 144 191 72 96 142 170 227 203 189 198 168 69 71 81 49 2 332 326 321 296 277 271 261 249 182 170 173 177 186 193 208 210 210 218 225 223 211 207 221 215 220 235 220 208 210 202 184 132 88 87 112 104 90 74 64 58 54 48 45 43 40 36 28 28
278 259 68 21 341 294 281 269 257 285 290 77 49 55 51 357 8 44 24 353 342 351 352 17 127 131 128 161 133 115 234 194 179 186 153 76 28 67 43 6 336 322 314 271 246 246 259 257 214 167 178 197 171 128 7 333 308 224 213 216 211 206 219 219 217 228 231 227 224 208 157 120 100 92 117 107 91 78 68 62 56 51 49 45 42 42 36 29
282 291 32 10 328 270 277 278 70 340 3 78 55 54 59 312 336 14 6 347 350 16 15 50 105 120 131 112 60 87 130 147 229 206 115 63 33 34 23 358 333 315 307 264 223 329 324 279 244 185 177 163 111 83 344 325 340 316 240 236 227 210 213 218 217 221 229 240 239 176 108 117 137 115 115 109 92 80 72 65 63 56 50 49 46 42 40 34
298 5 37 21 313 279 282 272 103 42 56 75 73 61 47 2 19 25 358 345 346 28 63 76 82 138 153 152 175 151 97 42 24 36 66 78 58 27 9 352 338 325 319 306 299 16 331 253 233 215 125 109 97 79 301 313 310 261 229 259 268 236 228 236 249 252 237 234 230 180 118 137 168 145 126 123 111 97 87 74 67 63 53 50 49 45 40 33
21 27 60 46 310 284 286 344 99 101 94 100 118 99 69 36 28 28 37 24 5 17 68 70 41 19 154 173 199 196 197 254 117 85 10 65 64 16 3 356 346 346 5 3 352 349 316 231 217 217 194 167 152 180 200 207 235 234 215 233 297 294 283 275 279 277 245 241 248 236 143 129 157 188 155 130 118 101 93 82 70 65 56 49 49 47 43 37
312 231 95 52 332 302 340 12 37 104 117 116 111 107 106 85 44 18 33 43 22 11 41 57 39 59 127 170 187 176 198 233 207 163 135 82 85 30 7 360 353 1 18 357 327 316 305 250 242 238 213 197 191 191 191 193 201 213 211 215 257 282 289 277 260 239 229 248 281 286 124 126 162 193 153 128 118 103 94 84 75 71 63 54 49 48 47 41
300 256 94 77 49 46 49 21 4 74 125 130 99 71 71 100 89 29 4 32 36 23 36 45 20 88 130 166 172 164 179 189 178 176 158 123 114 65 7 357 9 9 353 329 313 309 295 258 42 320 278 307 348 17 349 223 194 181 173 180 205 268 280 260 252 250 248 251 247 117 127 140 160 166 146 127 117 109 100 88 80 75 72 66 58 57 58 51
325 349 5 14 34 73 84 51 18 24 42 18 2 13 36 95 109 76 16 26 40 12 24 36 357 185 133 159 158 131 114 119 128 147 135 109 112 115 69 4 28 3 324 309 316 322 285 228 142 141 305 354 4 28 18 322 179 157 161 166 149 117 253 245 247 290 311 278 203 135 139 147 149 149 141 126 117 109 97 90 84 75 71 71 68 64 62 58
4 40 36 335 314 16 49 34 36 58 64 57 9 348 59 79 75 65 58 68 71 334 329 67 48 56 88 115 167 126 114 120 119 116 117 114 129 152 157 86 44 354 310 317 3 336 285 245 130 224 189 65 359 13 15 10 78 125 181 147 112 129 218 230 256 5 341 269 150 142 142 139 138 139 131 122 122 115 97 85 79 77 74 70 69 66 59 56
28 92 79 304 308 40 58 41 48 71 62 49 45 37 55 83 77 57 42 59 76 36 11 100 88 67 83 60 47 112 102 129 134 123 91 100 142 200 174 130 97 46 334 342 26 342 295 332 358 296 224 149 63 354 329 346 163 211 214 186 231 226 120 139 46 45 70 117 137 146 141 132 132 130 124 122 122 113 102 89 74 76 79 70 66 62 58 56
3 40 35 203 87 61 80 111 100 109 96 55 70 56 43 70 83 70 35 33 76 77 60 88 88 74 78 73 68 81 46 12 86 112 76 6 178 256 319 63 61 52 15 339 6 354 303 344 342 291 250 186 179 221 211 237 254 230 204 189 223 213 182 203 174 125 138 134 139 148 143 133 124 123 129 135 126 115 109 98 80 70 71 70 67 61 56 53
3 17 335 304 86 29 302 67 275 205 112 74 68 81 71 76 84 82 57 41 52 75 80 90 94 86 82 78 72 71 56 36 62 90 56 356 18 28 31 25 333 324 86 106 313 296 279 240 165 266 252 194 174 217 213 218 244 240 225 205 204 215 213 197 163 157 173 152 150 160 159 145 130 131 140 146 134 123 114 105 93 76 65 64 63 62 59 53
353 13 311 295 159 189 262 167 215 282 66 64 59 73 89 91 83 52 55 63 52 49 52 60 84 98 89 78 63 45 37 33 40 57 37 353 2 28 42 43 330 324 15 101 239 258 278 258 186 232 251 183 151 202 240 229 231 235 223 192 188 207 209 146 128 93 355 176 172 174 153 137 137 145 150 154 147 125 104 98 97 86 72 66 62 59 59 57
Height
807 806 805 803 802 801 800 798 797 796 796 794 793 793 792 791 790 789 787 786 785 784 784 783 783 782 781 780 780 779 778 778 777 776 773 766 764 766 766 767 767 769 771 771 770 769 768 768 767 765 765 763 763 763 760 760 761 771 785 789 787 786 782 777 779 777 778 783 781 781 779 782 789 784 775 774 776 776 777 776 767 763 764 765 771 777 781 786
808 806 804 803 802 801 799 798 797 796 795 793 792 792 791 790 789 788 787 785 784 783 783 782 782 782 781 780 779 779 778 777 776 771 765 762 763 764 764 766 767 769 770 770 768 766 767 767 765 764 764 763 762 759 761 760 762 775 784 790 788 779 770 764 770 774 774 781 780 780 779 779 782 779 775 782 785 778 783 782 772 771 769 769 774 779 783 786
807 806 804 803 802 800 799 797 796 795 794 793 791 791 790 789 788 787 786 784 783 783 782 782 781 781 780 780 779 779 778 777 773 764 757 758 761 762 763 765 766 767 768 768 766 765 766 764 762 763 764 765 763 761 766 763 765 775 781 792 787 771 765 757 761 771 770 773 779 780 778 780 780 776 778 785 787 781 784 782 776 779 776 775 777 779 784 786
807 806 804 803 801 799 798 797 796 794 793 792 790 790 789 788 787 786 785 784 783 782 781 781 781 781 780 779 779 779 778 776 766 755 754 757 758 760 762 763 764 766 767 767 766 766 763 761 761 762 765 767 762 762 768 765 767 774 777 787 778 762 766 758 754 766 768 769 777 781 781 785 782 779 782 784 788 788 783 777 775 777 776 777 778 779 784 787
807 806 804 802 801 799 798 796 795 794 792 791 790 788 787 786 786 784 784 783 782 781 781 780 780 780 780 779 779 778 779 776 759 751 755 756 757 758 760 762 763 766 767 767 766 764 762 760 761 763 766 766 762 765 768 759 761 770 770 776 770 758 765 759 749 759 766 769 777 783 786 786 782 783 786 785 790 790 781 775 772 772 773 775 777 779 783 786
807 805 803 801 800 799 797 796 794 793 792 790 789 787 786 785 784 783 782 781 781 780 780 780 780 780 779 779 779 779 779 770 754 752 756 755 757 757 758 761 762 766 767 766 764 763 762 760 764 769 768 765 763 765 765 756 757 770 773 773 764 754 762 757 747 754 761 771 781 784 784 783 787 791 788 785 787 782 775 771 769 769 771 773 776 779 783 786
807 804 803 801 799 798 796 795 794 792 791 789 788 786 785 783 782 782 780 780 780 779 779 779 780 779 779 779 779 778 775 763 750 753 755 754 757 756 759 761 762 767 766 764 762 762 762 763 767 767 767 767 762 761 760 756 756 768 778 774 759 752 759 753 746 750 752 767 776 775 781 785 789 793 790 787 784 779 774 768 767 768 770 773 777 779 782 785
806 804 802 800 798 797 795 794 792 791 790 788 786 785 783 782 781 780 779 779 778 778 779 779 779 779 779 779 777 773 768 758 751 754 754 754 756 755 760 762 764 766 764 763 760 760 762 764 766 763 768 765 757 757 756 759 762 766 772 766 755 751 752 745 744 748 750 763 770 771 781 785 782 785 788 788 783 779 772 766 767 769 771 775 778 780 782 785
805 803 801 800 798 796 794 793 791 790 788 787 785 783 782 781 779 778 778 777 777 777 777 778 779 778 779 778 774 769 760 753 752 754 754 755 756 757 760 761 764 764 763 762 758 760 761 763 763 758 763 759 752 755 754 764 770 762 760 757 753 751 746 744 746 748 750 758 766 772 780 783 778 780 789 787 781 778 770 768 769 770 774 777 779 780 782 785
804 802 801 799 797 795 793 792 790 788 787 785 784 782 781 779 778 777 776 775 775 776 777 778 778 778 779 776 773 768 756 752 755 754 755 756 757 759 760 760 763 762 761 760 758 758 758 759 757 751 757 757 753 755 753 763 764 754 754 753 751 751 745 745 748 747 748 753 762 775 783 784 779 782 793 788 780 777 771 771 772 772 776 777 778 779 781 784
804 802 800 798 796 795 792 791 789 787 786 784 783 781 779 778 777 775 774 774 774 775 776 777 778 778 778 775 773 765 753 753 755 755 757 758 758 759 760 760 761 761 760 758 758 757 756 755 751 752 761 759 755 756 753 752 751 750 753 755 751 748 745 744 748 747 748 754 760 772 783 784 781 784 790 785 779 777 773 775 774 774 777 776 777 780 781 783
803 801 799 797 796 793 791 790 788 786 784 783 782 780 778 777 775 774 773 773 773 774 776 777 778 778 777 774 768 759 753 755 755 756 758 758 759 760 759 761 761 760 759 757 758 756 757 754 752 759 761 757 758 760 754 743 746 751 753 760 754 746 748 745 747 745 748 759 759 767 787 791 786 783 782 779 779 777 774 775 775 775 776 776 777 780 782 783
802 800 798 796 794 792 791 788 787 785 783 782 781 779 777 776 774 773 772 772 773 774 775 776 777 777 778 770 758 755 756 756 756 756 758 758 759 760 760 761 760 761 759 757 757 757 758 756 756 758 754 758 761 754 749 742 748 755 754 760 758 755 755 745 745 746 750 763 758 764 791 794 783 780 779 777 780 783 779 775 778 778 776 777 778 780 782 783
801 799 797 795 793 792 790 787 786 784 783 781 780 778 777 775 773 772 772 772 773 774 775 776 777 777 777 765 753 755 757 756 757 756 757 758 758 759 760 760 761 760 759 757 757 757 758 757 758 758 754 757 755 749 753 752 752 758 758 758 761 769 763 746 744 749 759 765 756 768 791 790 782 781 780 777 779 785 782 776 778 781 778 777 777 781 782 782
799 797 795 794 792 791 789 787 785 783 782 781 779 778 777 775 774 772 773 773 773 775 775 776 777 775 772 761 753 756 757 756 756 755 756 757 757 758 758 760 761 760 760 759 758 758 760 760 762 765 761 755 755 761 765 760 755 758 767 767 763 767 765 752 745 749 768 768 756 773 791 787 783 781 778 777 779 780 779 777 777 781 781 778 777 779 782 782
798 796 794 792 790 789 788 786 784 783 782 780 779 778 777 775 774 774 774 774 775 775 775 776 774 773 770 760 753 756 757 755 755 755 756 756 756 757 758 760 760 760 761 759 759 761 762 763 763 763 761 759 764 770 768 766 763 757 765 771 764 766 767 760 750 746 761 768 764 775 786 788 784 781 780 779 780 779 780 781 780 782 781 779 779 778 781 783
797 795 792 791 789 787 786 785 783 782 781 780 779 778 777 776 775 776 775 775 776 775 775 773 769 770 767 757 755 757 753 752 754 755 756 756 756 757 759 760 760 760 761 761 762 762 763 765 766 764 763 763 763 767 774 778 771 759 760 764 760 763 765 765 760 749 752 765 772 774 779 789 786 782 783 778 780 785 785 787 785 783 782 779 779 778 779 782
796 794 791 789 787 786 784 783 782 781 780 779 779 778 777 776 776 776 776 776 776 776 776 771 769 773 766 755 755 753 749 751 753 754 755 755 756 758 759 758 759 760 763 766 766 765 767 766 767 770 768 767 763 766 777 773 762 757 758 760 760 761 761 765 765 753 751 761 772 780 782 785 783 779 781 777 779 787 788 789 789 783 780 779 778 779 779 781
794 791 789 787 785 784 783 782 781 780 779 779 779 779 778 777 777 777 775 775 775 773 771 767 766 769 762 752 747 746 747 751 753 754 755 755 756 758 758 758 759 762 768 772 770 766 768 769 772 776 772 769 765 761 763 754 746 747 746 749 758 762 757 756 758 750 749 759 773 790 789 782 783 778 779 780 779 784 786 787 787 779 776 777 778 778 778 780
792 789 788 786 784 782 781 780 780 779 779 779 779 779 777 775 774 773 771 770 767 761 759 759 758 757 754 747 745 748 750 752 753 753 755 755 756 757 757 759 761 765 768 770 771 764 764 774 776 774 768 762 758 753 750 741 738 743 741 741 750 760 755 749 754 748 746 760 770 784 789 783 783 779 776 779 781 786 787 785 783 778 777 777 778 779 778 779
790 788 786 784 782 781 780 779 778 778 778 778 779 777 771 767 769 770 767 763 757 753 754 753 751 751 750 746 746 750 752 754 752 751 755 754 753 759 761 761 767 772 766 762 765 761 765 776 771 764 758 752 750 749 747 743 743 748 743 739 746 757 754 745 750 748 746 761 766 771 784 783 776 775 775 775 782 789 785 783 781 777 777 776 777 780 777 777
789 787 784 783 781 779 778 778 777 778 777 777 778 773 764 764 768 768 767 763 753 749 752 751 751 751 749 748 749 749 752 756 756 751 752 753 754 760 761 762 769 770 762 759 764 769 774 774 762 753 749 747 748 748 750 750 752 754 747 747 752 754 753 748 748 746 746 760 765 762 773 778 769 767 771 772 778 780 774 775 774 771 775 778 781 781 777 778
788 785 783 782 779 778 777 776 776 777 777 776 773 768 765 767 768 767 767 767 757 749 750 751 753 753 751 751 749 750 753 754 757 753 750 753 755 755 759 763 765 763 761 761 765 773 777 769 754 747 746 749 753 752 752 756 758 756 752 755 757 754 759 762 754 748 745 750 757 756 759 766 766 767 770 767 768 768 765 771 773 770 774 779 780 778 774 778
787 784 783 780 779 778 776 775 776 775 776 774 770 767 768 769 769 768 767 765 758 749 747 747 748 749 749 747 746 751 753 748 750 751 749 753 754 752 755 759 761 760 759 759 760 766 766 754 745 745 748 751 756 755 755 762 763 757 752 752 751 752 756 757 753 748 746 746 748 755 763 761 758 766 772 765 762 764 763 771 777 774 776 779 776 774 773 775
786 784 782 780 779 777 776 776 774 773 774 772 769 769 770 771 769 769 769 766 761 751 747 747 748 746 743 745 747 747 748 745 743 745 746 749 750 753 755 752 756 759 756 757 759 762 757 742 740 747 750 753 758 758 757 763 765 758 752 745 742 745 746 749 754 754 760 762 749 753 779 775 753 758 771 767 764 766 765 768 773 776 780 780 776 774 774 775
785 783 781 781 779 777 777 774 772 773 772 768 769 769 770 771 769 770 771 769 763 753 751 752 751 749 745 747 746 744 752 749 737 738 745 747 743 748 756 752 752 754 750 753 759 757 749 739 741 749 753 759 762 760 756 756 764 762 747 739 740 742 742 745 754 760 766 764 746 745 774 784 765 760 767 766 765 768 771 772 773 775 776 775 775 774 774 776
785 783 782 781 779 778 777 773 772 772 769 768 769 770 771 770 770 770 773 777 767 751 750 752 750 749 746 744 742 748 760 752 740 741 743 746 742 742 755 753 752 753 742 749 765 757 744 743 750 754 757 763 764 760 753 750 763 759 735 733 745 749 749 748 751 760 756 750 749 747 758 776 776 768 764 764 767 771 776 778 775 776 776 773 774 774 773 775
784 782 782 780 779 779 776 774 773 768 767 770 769 771 771 770 771 770 777 788 772 747 746 751 748 745 743 741 741 746 750 745 750 751 740 744 745 745 757 751 748 753 739 748 769 755 740 748 756 758 762 763 759 753 746 748 759 749 730 733 742 748 753 750 753 759 750 752 764 753 749 773 781 771 768 771 776 783 787 783 775 774 777 774 773 774 773 774
784 782 781 780 779 778 776 776 774 768 770 771 771 773 770 770 771 769 782 790 766 746 747 749 749 748 745 746 746 746 744 743 750 748 740 747 747 746 756 748 744 750 742 745 758 748 740 746 750 754 760 758 752 745 740 748 754 741 735 741 742 748 752 751 756 757 754 766 774 755 747 772 787 774 767 776 788 791 788 785 777 770 771 770 770 771 772 773
783 782 781 780 778 777 776 775 773 771 772 772 772 772 769 771 771 779 796 785 756 748 749 748 750 749 749 752 753 749 747 748 747 746 747 751 748 747 749 745 744 748 747 749 752 743 738 740 742 747 750 745 742 742 739 744 746 738 742 752 755 756 753 756 758 754 766 780 773 755 743 760 791 786 766 772 782 777 773 780 782 776 773 770 764 765 769 771
782 782 781 780 778 777 774 771 771 772 772 772 773 770 770 771 771 787 795 770 751 754 751 749 749 746 749 753 753 751 750 750 749 751 755 752 753 755 754 753 753 751 753 756 754 746 742 744 747 743 739 737 740 744 741 740 744 744 748 759 769 770 765 770 768 766 786 788 764 752 743 749 783 790 772 768 766 762 764 769 773 775 778 774 765 762 765 768
782 781 780 779 777 776 773 770 770 772 772 772 772 769 771 777 780 785 777 759 761 762 751 750 750 747 749 748 749 752 752 753 750 750 754 755 758 758 756 758 759 762 767 764 758 752 749 749 749 745 739 739 746 751 750 747 749 753 754 764 779 783 787 792 785 780 789 778 752 747 748 752 768 773 769 769 763 760 763 762 763 766 769 769 766 764 764 766
781 780 779 778 776 775 773 771 771 772 771 771 772 768 770 783 787 778 764 760 765 758 749 750 750 747 745 745 750 749 750 755 751 747 747 749 753 752 752 752 750 758 766 767 760 753 755 753 746 750 749 744 744 752 762 758 755 760 760 767 779 783 797 804 793 786 785 772 751 741 747 762 775 775 768 766 764 760 759 760 762 761 760 761 760 762 767 769
780 778 778 776 774 773 772 771 771 770 771 770 769 770 778 788 782 769 763 761 757 753 751 751 751 752 749 750 755 751 753 758 751 747 748 749 754 754 756 755 750 750 757 764 758 750 763 765 752 753 753 747 743 743 749 750 753 760 753 756 766 765 780 794 787 784 782 772 756 743 747 764 781 783 768 761 761 757 758 759 759 759 757 756 752 754 764 774
778 777 776 774 772 772 770 771 770 770 770 768 769 777 786 786 774 766 767 761 754 754 753 749 750 756 757 756 757 751 754 760 754 752 754 754 757 759 759 757 753 755 761 767 759 748 758 758 746 747 744 743 748 740 737 745 753 753 745 753 760 747 753 768 766 761 764 769 760 750 758 764 767 769 760 759 762 758 760 761 760 763 759 757 757 755 761 772
777 775 774 772 770 770 770 769 769 769 768 766 776 783 779 774 770 768 767 762 758 755 754 754 752 756 762 760 760 756 754 757 756 756 759 758 761 764 763 760 758 762 764 767 762 751 756 754 745 749 747 742 747 743 740 749 754 750 750 757 749 731 736 755 757 746 752 771 761 750 770 777 772 773 763 760 767 765 765 765 765 768 764 763 764 761 762 766
775 772 771 769 768 769 769 768 768 768 766 767 777 779 767 766 768 766 764 762 760 754 757 764 759 759 765 763 762 760 757 759 758 760 766 768 770 772 769 765 763 762 761 765 762 748 752 763 753 751 756 748 741 745 744 742 744 752 756 749 734 729 736 749 762 758 761 776 760 745 768 783 786 792 777 767 774 773 771 772 771 771 770 770 768 766 766 764
773 770 768 767 768 768 766 767 766 764 766 769 775 774 766 766 766 763 763 763 760 758 763 771 766 761 763 764 764 760 758 764 764 763 768 770 774 776 773 770 766 762 759 761 763 748 747 767 762 749 754 751 743 751 756 745 738 744 747 738 734 751 761 762 770 769 766 773 762 747 758 771 779 787 783 779 781 778 777 777 776 776 775 775 773 770 768 766
772 769 767 765 766 766 765 766 763 760 768 772 771 771 768 767 766 763 763 762 761 762 763 764 763 762 762 763 766 763 760 765 765 765 770 773 777 776 773 774 769 765 760 758 762 755 746 763 769 751 746 751 750 755 763 757 744 740 744 738 732 745 759 760 761 758 757 767 766 753 758 774 779 777 780 785 783 781 783 782 781 782 780 779 777 775 771 769
768 766 766 764 765 766 763 762 760 760 767 769 766 767 768 767 766 764 762 762 762 763 762 760 762 767 768 766 768 768 764 764 765 767 772 775 778 778 775 776 774 768 763 759 760 758 750 757 768 757 747 754 757 753 755 756 750 748 753 751 742 742 747 749 749 743 744 760 763 756 771 790 785 774 777 783 782 781 782 783 784 784 782 781 781 781 778 774
764 765 766 763 764 765 761 760 761 761 763 766 767 769 771 770 768 766 764 762 761 761 760 760 762 768 773 773 773 772 768 768 767 770 774 776 780 782 778 777 777 771 767 764 760 758 757 757 762 761 758 759 756 749 750 751 747 747 750 748 745 747 751 760 763 745 735 746 747 751 787 805 785 773 776 778 779 779 779 783 786 784 784 785 784 784 783 780
765 767 766 763 764 763 760 762 764 763 764 769 771 772 773 773 770 768 766 763 763 762 760 761 764 768 773 776 776 774 774 776 774 773 776 779 782 785 780 777 776 771 767 766 760 758 761 761 762 762 759 756 753 749 750 750 745 744 745 742 739 741 748 762 772 757 743 744 734 746 796 813 786 773 776 775 777 778 780 784 786 786 787 787 787 786 785 784
767 767 765 764 764 760 762 767 768 768 771 773 773 773 773 772 771 770 769 767 766 764 765 767 767 768 771 775 777 777 779 784 784 780 781 783 785 786 783 778 775 771 769 769 765 762 765 766 770 771 763 755 754 752 749 748 750 752 750 746 744 742 740 747 757 755 752 750 739 755 802 813 789 777 776 774 777 779 782 785 786 789 789 787 789 788 787 787
766 766 763 764 764 760 763 769 770 773 776 775 775 776 776 775 775 774 773 773 770 767 770 772 770 768 769 769 773 776 779 786 789 785 784 786 787 787 784 780 778 774 775 779 776 773 773 770 773 782 780 773 772 771 765 761 759 757 752 751 753 750 746 750 753 757 764 757 742 761 800 806 790 782 777 775 778 780 783 784 786 791 792 790 790 789 789 789
767 768 764 763 761 759 763 765 766 773 777 777 778 778 778 779 779 777 776 776 774 771 773 774 771 768 769 769 772 774 776 782 788 787 786 788 789 788 785 783 781 778 779 784 780 776 777 773 774 787 793 792 793 787 776 768 763 759 758 760 762 757 756 760 760 764 773 764 752 772 801 803 793 786 781 779 782 785 786 785 787 790 792 793 792 791 791 790
769 770 768 766 762 760 765 765 764 771 775 776 780 779 778 782 781 778 777 778 777 774 775 775 772 771 773 773 776 778 776 776 782 784 785 788 790 789 787 784 783 783 784 785 779 775 776 774 776 787 790 790 792 781 763 755 757 763 768 769 766 763 761 762 764 769 769 763 769 785 796 799 797 788 784 784 786 788 789 788 789 791 791 793 793 793 793 792
771 775 774 774 771 768 770 769 769 773 773 776 782 782 780 782 781 780 780 780 780 778 777 777 775 776 779 778 779 783 781 779 782 784 785 788 788 789 788 785 784 786 786 783 777 776 779 778 776 782 783 779 778 772 762 757 759 765 771 771 770 769 766 765 769 771 765 769 788 794 787 793 796 787 785 789 789 791 792 790 791 791 790 791 793 793 793 794
773 778 776 777 780 777 776 776 774 775 776 778 782 782 782 783 784 784 782 781 780 779 780 784 781 778 780 780 781 786 789 788 790 791 789 789 788 788 787 786 785 785 784 780 778 779 783 781 775 777 780 777 773 771 769 767 768 770 772 772 772 771 770 770 771 769 766 775 792 793 786 790 792 786 786 789 789 793 794 792 791 791 791 791 792 795 795 795
774 777 776 776 780 781 781 780 777 778 782 783 784 784 785 786 788 787 783 783 786 783 782 788 788 783 781 781 782 790 794 793 795 796 793 790 790 788 788 789 787 784 783 782 782 782 786 786 781 778 780 779 777 776 773 772 775 775 773 774 774 772 771 772 772 769 769 773 779 783 788 790 786 786 788 787 787 791 793 795 794 793 794 794 794 797 797 797
778 780 780 777 779 781 781 779 779 781 784 786 788 788 787 787 790 789 784 786 792 790 785 789 790 786 785 785 787 793 795 790 792 796 794 793 792 789 789 792 789 786 786 787 785 784 788 792 788 782 782 783 780 777 776 777 778 777 776 775 774 774 774 775 774 771 772 775 775 780 792 794 785 784 788 786 787 791 795 800 801 798 797 796 798 800 800 800
783 784 783 781 783 786 784 781 779 780 782 785 788 790 789 789 790 790 789 787 790 791 788 789 791 789 789 791 793 795 794 789 790 792 791 791 791 789 790 791 790 790 790 791 790 787 788 792 790 788 789 786 780 780 779 778 779 780 779 777 777 777 775 773 773 771 772 777 780 784 796 799 789 785 789 789 789 794 799 802 804 803 801 800 802 803 803 803
787 786 784 782 785 787 784 781 779 781 785 789 791 790 791 791 788 790 795 793 789 789 789 788 789 790 794 799 799 796 792 790 790 789 788 788 786 786 788 788 788 790 791 792 793 790 788 790 790 791 792 785 780 782 781 781 788 788 778 772 775 776 774 773 775 775 774 775 780 785 790 792 789 788 792 793 792 796 801 803 805 807 805 804 805 804 804 805